GW4214 Weather Reports


Display with metric or nautical units.
time (UTC)temp
F
wind
direction
speed
MPH
gust
MPH
rain 1hr
in
rain 24hr
in
rain mn
in
humidity
%
barometer
mb
20260504201337 67 120 8.0 10.0 0.00 0.00 0.00 70 1016.2
20260504200834 65 128 4.0 6.0 0.00 0.00 0.00 71 1016.2
20260504200331 65 203 3.0 6.0 0.00 0.00 0.00 72 1016.2
20260504195827 65 138 6.0 9.0 0.00 0.00 0.00 72 1016.2
20260504195323 64 156 6.0 8.0 0.00 0.00 0.00 72 1016.5
20260504194820 66 181 3.0 3.0 0.00 0.00 0.00 72 1016.2
20260504194316 64 188 2.0 2.0 0.00 0.00 0.00 74 1016.2
20260504193812 63 184 3.0 3.0 0.00 0.00 0.00 76 1016.2
20260504193310 63 160 7.0 8.0 0.00 0.00 0.00 73 1015.9
20260504192808 63 207 2.0 3.0 0.00 0.00 0.00 75 1016.2
20260504192306 62 171 3.0 5.0 0.00 0.00 0.00 76 1016.2
20260504191804 63 196 5.0 6.0 0.00 0.00 0.00 76 1016.2
20260504191301 62 173 3.0 5.0 0.00 0.00 0.00 76 1016.2
20260504190756 62 206 3.0 5.0 0.00 0.00 0.00 78 1016.5
20260504190253 61 175 2.0 3.0 0.00 0.00 0.00 79 1016.5
20260504185749 61 157 5.0 6.0 0.00 0.00 0.00 79 1016.5
20260504185246 61 160 4.0 6.0 0.00 0.00 0.00 78 1016.5
20260504184742 61 124 3.0 5.0 0.00 0.00 0.00 78 1016.5
20260504184238 61 108 5.0 7.0 0.00 0.00 0.00 79 1016.5
20260504183734 60 167 5.0 6.0 0.00 0.00 0.00 79 1016.9
20260504183231 60 170 3.0 5.0 0.00 0.00 0.00 79 1016.9
20260504182729 60 154 4.0 5.0 0.00 0.00 0.00 81 1016.5
20260504182226 60 237 5.0 8.0 0.00 0.00 0.00 81 1016.9
20260504181724 60 240 2.0 3.0 0.00 0.00 0.00 82 1016.5
20260504181221 60 199 4.0 5.0 0.00 0.00 0.00 81 1016.5
20260504180720 59 172 3.0 3.0 0.00 0.00 0.00 81 1016.5
20260504180219 59 171 6.0 7.0 0.00 0.00 0.00 81 1016.5
20260504175716 59 212 3.0 3.0 0.00 0.00 0.00 82 1016.5
20260504175212 60 194 6.0 7.0 0.00 0.00 0.00 81 1016.5
20260504174710 59 118 3.0 5.0 0.00 0.00 0.00 82 1016.5
20260504174208 59 164 5.0 7.0 0.00 0.00 0.00 83 1016.5
20260504173704 59 183 4.0 6.0 0.00 0.00 0.00 83 1016.5
20260504173201 58 207 4.0 5.0 0.00 0.00 0.00 83 1016.5
20260504172658 59 194 7.0 9.0 0.00 0.00 0.00 82 1016.5
20260504172154 59 175 5.0 5.0 0.00 0.00 0.00 82 1016.5
20260504171650 59 161 4.0 8.0 0.00 0.00 0.00 82 1016.9
20260504171148 59 174 3.0 3.0 0.00 0.00 0.00 82 1016.5
20260504170644 59 190 1.0 1.0 0.00 0.00 0.00 83 1016.5
20260504170142 58 217 3.0 3.0 0.00 0.00 0.00 83 1016.5
20260504151021 55 179 6.0 8.0 0.00 0.00 0.00 88 1016.2
20260504150519 56 197 3.0 3.0 0.00 0.00 0.00 88 1016.2
20260504140945 55 147 2.0 3.0 0.00 0.00 0.00 90 1015.9
20260504140441 55 211 3.0 3.0 0.00 0.00 0.00 91 1015.5
20260504130406 54 179 5.0 7.0 0.00 0.00 0.00 93 1014.9
20260504110253 54 190 1.0 2.0 0.00 0.00 0.00 91 1013.8
20260504100216 55 184 4.0 5.0 0.00 0.00 0.00 88 1013.5
20260504090139 57 177 4.0 5.0 0.00 0.00 0.00 83 1013.2
20260504081609 60 188 2.0 5.0 0.00 0.00 0.00 77 1012.5
20260504081105 60 209 3.0 3.0 0.00 0.00 0.00 76 1012.1
20260504080602 60 192 4.0 5.0 0.00 0.00 0.00 77 1012.5
20260504050415 72 221 0.0 0.0 0.00 0.00 0.00 53 1010.4
20260504045912 72 222 1.0 1.0 0.00 0.00 0.00 53 1010.4
20260504045408 72 220 0.0 0.0 0.00 0.00 0.00 52 1010.0
20260504044904 73 218 1.0 1.0 0.00 0.00 0.00 51 1009.7
20260504044401 74 227 1.0 1.0 0.00 0.00 0.00 50 1010.0
20260504043859 75 218 0.0 0.0 0.00 0.00 0.00 48 1009.7
20260504043355 75 220 0.0 1.0 0.00 0.00 0.00 47 1009.7
20260504042853 75 227 1.0 1.0 0.00 0.00 0.00 47 1009.7
20260504042349 75 230 1.0 1.0 0.00 0.00 0.00 48 1009.7
20260504041845 75 218 0.0 0.0 0.00 0.00 0.00 50 1009.3
20260504041342 75 218 0.0 0.0 0.00 0.00 0.00 50 1009.7
20260504040838 76 224 0.0 0.0 0.00 0.00 0.00 50 1009.7
20260504040336 76 216 0.0 0.0 0.00 0.00 0.00 48 1009.3
20260504035831 77 216 0.0 0.0 0.00 0.00 0.00 46 1009.3
20260504035330 77 217 0.0 0.0 0.00 0.00 0.00 46 1009.3
20260504034826 78 215 0.0 0.0 0.00 0.00 0.00 47 1009.3
20260504034324 79 225 1.0 1.0 0.00 0.00 0.00 45 1009.3
20260504033821 80 215 0.0 0.0 0.00 0.00 0.00 44 1009.0
20260504033319 80 216 0.0 0.0 0.00 0.00 0.00 44 1009.0
20260504032815 81 225 1.0 1.0 0.00 0.00 0.00 43 1009.0
20260504032312 82 222 1.0 2.0 0.00 0.00 0.00 42 1009.3
20260504031809 82 254 3.0 3.0 0.00 0.00 0.00 41 1009.0
20260504031306 83 225 1.0 1.0 0.00 0.00 0.00 41 1009.0
20260504030802 83 224 3.0 3.0 0.00 0.00 0.00 40 1009.0
20260504030300 84 240 2.0 2.0 0.00 0.00 0.00 39 1009.0
20260504025756 85 214 1.0 1.0 0.00 0.00 0.00 38 1009.0
20260504025253 86 233 3.0 3.0 0.00 0.00 0.00 36 1009.0
20260504024749 87 233 0.0 0.0 0.00 0.00 0.00 36 1009.0
20260504024246 87 225 0.0 0.0 0.00 0.00 0.00 36 1009.0
20260504023743 87 238 0.0 0.0 0.00 0.00 0.00 35 1009.0
20260504023239 87 244 2.0 2.0 0.00 0.00 0.00 34 1009.0
20260504022735 87 237 0.0 0.0 0.00 0.00 0.00 34 1009.0
20260504022232 88 284 2.0 3.0 0.00 0.00 0.00 34 1009.0
20260504021729 88 239 0.0 1.0 0.00 0.00 0.00 34 1009.0
20260504021226 88 263 3.0 5.0 0.00 0.00 0.00 34 1009.0
20260504020723 87 245 2.0 2.0 0.00 0.00 0.00 34 1009.0
20260504020219 87 285 3.0 3.0 0.00 0.00 0.00 34 1008.7
20260504015716 88 285 0.0 1.0 0.00 0.00 0.00 34 1009.0
20260504015212 88 253 3.0 5.0 0.00 0.00 0.00 34 1009.0
20260504014708 88 234 3.0 3.0 0.00 0.00 0.00 34 1009.0
20260504014205 88 301 5.0 7.0 0.00 0.00 0.00 34 1009.0
20260504013703 88 221 1.0 1.0 0.00 0.00 0.00 33 1009.0
20260504013200 88 257 3.0 5.0 0.00 0.00 0.00 33 1009.0
20260504012656 88 251 3.0 5.0 0.00 0.00 0.00 33 1009.0
20260504012154 88 278 5.0 7.0 0.00 0.00 0.00 33 1009.0
20260504011651 88 233 3.0 5.0 0.00 0.00 0.00 33 1009.0
20260504011148 89 253 3.0 3.0 0.00 0.00 0.00 32 1009.0
20260504010643 89 263 0.0 0.0 0.00 0.00 0.00 33 1009.3
20260504010139 89 257 0.0 1.0 0.00 0.00 0.00 32 1009.0
20260504005637 89 244 0.0 0.0 0.00 0.00 0.00 33 1009.3
20260504005133 89 243 1.0 1.0 0.00 0.00 0.00 33 1009.0
20260504004631 89 275 1.0 3.0 0.00 0.00 0.00 32 1009.3
20260504004128 89 222 2.0 3.0 0.00 0.00 0.00 32 1009.3
20260504003624 89 125 2.0 5.0 0.00 0.00 0.00 33 1009.3
20260504003121 90 304 3.0 5.0 0.00 0.00 0.00 32 1009.3
20260504002618 90 205 1.0 3.0 0.00 0.00 0.00 32 1009.3
20260504002116 90 273 0.0 0.0 0.00 0.00 0.00 31 1009.3
20260504001613 91 340 3.0 5.0 0.00 0.00 0.00 32 1009.3
20260504001109 90 207 0.0 0.0 0.00 0.00 0.00 32 1009.7
20260504000606 90 293 3.0 7.0 0.00 0.00 0.00 32 1009.3
20260504000104 91 291 1.0 3.0 0.00 0.00 0.00 32 1009.7